Time,TemperatureF,DewpointF,PressureIn,WindDirection,WindDirectionDegrees,WindSpeedMPH,WindSpeedGustMPH,Humidity,HourlyPrecipIn,Conditions,Clouds,dailyrainin,SoftwareType,DateUTC
2013-04-28 00:01:00,53.2,50.4,29.98,SW,230,2.2,2.2,90,0.00,,,0.00,VWS V13.01,2013-04-28 05:01:00,
2013-04-28 00:06:00,53.2,50.7,29.98,SW,223,2.7,3.1,91,0.00,,,0.00,VWS V13.01,2013-04-28 05:06:00,
2013-04-28 00:11:00,53.2,50.7,29.98,WSW,239,3.1,3.1,91,0.00,,,0.00,VWS V13.01,2013-04-28 05:11:00,
2013-04-28 00:16:00,53.0,50.5,29.98,WSW,243,5.4,5.4,91,0.00,,,0.00,VWS V13.01,2013-04-28 05:16:00,
2013-04-28 00:21:00,53.0,50.5,29.98,WSW,238,4.0,4.0,91,0.00,,,0.00,VWS V13.01,2013-04-28 05:21:00,
2013-04-28 00:26:00,53.0,50.5,29.98,SW,224,5.8,6.3,91,0.00,,,0.00,VWS V13.01,2013-04-28 05:26:00,
2013-04-28 00:31:00,53.0,50.8,29.98,SW,226,4.5,4.9,92,0.00,,,0.00,VWS V13.01,2013-04-28 05:31:00,
2013-04-28 00:36:00,53.0,50.8,29.98,WSW,240,4.0,4.9,92,0.00,,,0.00,VWS V13.01,2013-04-28 05:36:00,
2013-04-28 00:41:00,53.0,50.8,29.98,SW,234,3.6,6.3,92,0.00,,,0.00,VWS V13.01,2013-04-28 05:41:00,
2013-04-28 00:46:00,52.9,50.6,29.98,WSW,246,3.1,4.0,92,0.00,,,0.00,VWS V13.01,2013-04-28 05:46:00,
2013-04-28 00:51:00,52.9,50.6,29.98,WSW,255,2.7,2.7,92,0.00,,,0.00,VWS V13.01,2013-04-28 05:51:00,
2013-04-28 00:56:00,52.9,50.6,29.98,WSW,256,3.6,6.3,92,0.00,,,0.00,VWS V13.01,2013-04-28 05:56:00,
2013-04-28 01:01:00,52.9,50.6,29.98,WSW,239,3.1,4.5,92,0.00,,,0.00,VWS V13.01,2013-04-28 06:01:00,
2013-04-28 01:06:00,52.9,50.6,29.98,WSW,246,3.1,3.1,92,0.00,,,0.00,VWS V13.01,2013-04-28 06:06:00,
2013-04-28 01:11:00,52.9,50.6,29.98,WSW,241,2.7,2.7,92,0.00,,,0.00,VWS V13.01,2013-04-28 06:11:00,
2013-04-28 01:16:00,52.9,50.9,29.98,WSW,249,2.7,3.6,93,0.00,,,0.00,VWS V13.01,2013-04-28 06:16:00,
2013-04-28 01:21:00,52.9,50.9,29.98,WSW,241,2.7,2.7,93,0.00,,,0.00,VWS V13.01,2013-04-28 06:21:00,
2013-04-28 01:26:00,52.7,50.7,29.98,WSW,245,2.7,2.7,93,0.00,,,0.00,VWS V13.01,2013-04-28 06:26:00,
2013-04-28 01:31:00,52.7,50.7,29.98,WSW,247,3.6,3.6,93,0.00,,,0.00,VWS V13.01,2013-04-28 06:31:00,
2013-04-28 01:36:00,52.7,50.7,29.98,SW,232,4.0,4.9,93,0.00,,,0.00,VWS V13.01,2013-04-28 06:36:00,
2013-04-28 01:41:00,52.7,50.7,29.98,WSW,237,2.7,4.0,93,0.00,,,0.00,VWS V13.01,2013-04-28 06:41:00,
2013-04-28 01:46:00,52.7,51.0,29.98,SW,234,5.4,5.4,94,0.00,,,0.00,VWS V13.01,2013-04-28 06:46:00,
2013-04-28 01:51:00,52.5,50.8,29.98,SW,233,3.1,3.6,94,0.00,,,0.00,VWS V13.01,2013-04-28 06:51:00,
2013-04-28 01:56:00,52.5,50.8,29.98,SW,230,2.7,2.7,94,0.00,,,0.00,VWS V13.01,2013-04-28 06:56:00,
2013-04-28 02:01:00,52.5,50.8,29.98,WSW,246,3.1,3.1,94,0.00,,,0.00,VWS V13.01,2013-04-28 07:01:00,
2013-04-28 02:06:00,52.5,50.8,29.98,WSW,251,2.7,3.1,94,0.00,,,0.00,VWS V13.01,2013-04-28 07:06:00,
2013-04-28 02:11:00,52.5,50.8,29.98,WSW,237,0.0,3.6,94,0.00,,,0.00,VWS V13.01,2013-04-28 07:11:00,
2013-04-28 02:15:00,52.5,50.8,29.95,WSW,243,3.6,3.6,94,0.00,,,0.00,VWS V13.01,2013-04-28 07:15:00,
2013-04-28 02:20:00,52.5,50.8,29.95,SW,235,3.1,3.1,94,0.00,,,0.00,VWS V13.01,2013-04-28 07:20:00,
2013-04-28 02:25:00,52.5,50.8,29.95,WSW,246,3.6,3.6,94,0.00,,,0.00,VWS V13.01,2013-04-28 07:25:00,
2013-04-28 02:30:00,52.5,50.8,29.95,WSW,242,3.6,4.9,94,0.00,,,0.00,VWS V13.01,2013-04-28 07:30:00,
2013-04-28 02:35:00,52.5,50.8,29.95,WSW,255,3.1,4.0,94,0.00,,,0.00,VWS V13.01,2013-04-28 07:35:00,
2013-04-28 02:40:00,52.5,50.8,29.95,SW,235,2.7,3.1,94,0.00,,,0.00,VWS V13.01,2013-04-28 07:40:00,
2013-04-28 02:45:00,52.5,50.8,29.95,WSW,241,0.0,2.2,94,0.00,,,0.00,VWS V13.01,2013-04-28 07:45:00,
2013-04-28 02:50:00,52.3,50.7,29.95,WSW,253,3.1,3.6,94,0.00,,,0.00,VWS V13.01,2013-04-28 07:50:00,
2013-04-28 02:55:00,52.3,50.7,29.95,WSW,250,0.0,4.0,94,0.00,,,0.00,VWS V13.01,2013-04-28 07:55:00,
2013-04-28 03:00:00,52.3,50.7,29.95,WSW,243,3.6,4.0,94,0.00,,,0.00,VWS V13.01,2013-04-28 08:00:00,
2013-04-28 03:05:00,52.3,50.7,29.95,WSW,250,4.0,4.9,94,0.00,,,0.00,VWS V13.01,2013-04-28 08:05:00,
2013-04-28 03:10:00,52.3,50.7,29.95,SW,233,3.6,3.6,94,0.00,,,0.00,VWS V13.01,2013-04-28 08:10:00,
2013-04-28 03:15:00,52.3,50.7,29.95,SW,222,5.4,6.3,94,0.00,,,0.00,VWS V13.01,2013-04-28 08:15:00,
2013-04-28 03:20:00,52.3,50.4,29.95,WSW,245,3.1,3.1,93,0.00,,,0.00,VWS V13.01,2013-04-28 08:20:00,
2013-04-28 03:25:00,52.3,50.4,29.95,WSW,251,4.0,4.0,93,0.00,,,0.00,VWS V13.01,2013-04-28 08:25:00,
2013-04-28 03:30:00,52.3,50.4,29.95,SW,218,2.7,3.1,93,0.00,,,0.00,VWS V13.01,2013-04-28 08:30:00,
2013-04-28 03:35:00,52.3,50.4,29.95,WSW,254,3.1,3.6,93,0.00,,,0.00,VWS V13.01,2013-04-28 08:35:00,
2013-04-28 03:40:00,52.3,50.4,29.95,WSW,253,3.1,3.1,93,0.00,,,0.00,VWS V13.01,2013-04-28 08:40:00,
2013-04-28 03:45:00,52.1,49.9,29.95,WSW,257,0.0,3.1,92,0.00,,,0.00,VWS V13.01,2013-04-28 08:45:00,
2013-04-28 03:50:00,52.1,49.9,29.95,WSW,247,4.0,4.0,92,0.00,,,0.00,VWS V13.01,2013-04-28 08:50:00,
2013-04-28 03:55:00,52.1,49.9,29.95,WSW,240,3.1,3.1,92,0.00,,,0.00,VWS V13.01,2013-04-28 08:55:00,
2013-04-28 04:00:00,52.1,49.9,29.95,WSW,238,2.7,3.6,92,0.00,,,0.00,VWS V13.01,2013-04-28 09:00:00,
2013-04-28 04:05:00,52.1,49.9,29.95,SSW,202,2.2,3.1,92,0.00,,,0.00,VWS V13.01,2013-04-28 09:05:00,
2013-04-28 04:10:00,52.1,49.9,29.95,South,175,3.1,3.1,92,0.00,,,0.00,VWS V13.01,2013-04-28 09:10:00,
2013-04-28 04:15:00,52.1,50.2,29.95,SW,219,3.1,4.0,93,0.00,,,0.00,VWS V13.01,2013-04-28 09:15:00,
2013-04-28 04:20:00,52.1,50.2,29.95,SW,235,4.5,4.5,93,0.00,,,0.00,VWS V13.01,2013-04-28 09:20:00,
2013-04-28 04:25:00,52.1,50.2,29.95,SSW,207,2.2,2.7,93,0.00,,,0.00,VWS V13.01,2013-04-28 09:25:00,
2013-04-28 04:30:00,52.1,50.2,29.95,SW,228,3.1,3.1,93,0.00,,,0.00,VWS V13.01,2013-04-28 09:30:00,
2013-04-28 04:35:00,52.1,50.5,29.95,WSW,242,2.7,2.7,94,0.00,,,0.00,VWS V13.01,2013-04-28 09:35:00,
2013-04-28 04:40:00,52.1,50.5,29.95,WSW,246,3.6,4.0,94,0.00,,,0.00,VWS V13.01,2013-04-28 09:40:00,
2013-04-28 04:45:00,52.1,50.5,29.95,SW,225,3.6,3.6,94,0.00,,,0.00,VWS V13.01,2013-04-28 09:45:00,
2013-04-28 04:50:00,52.1,50.5,29.95,SW,235,2.7,3.6,94,0.00,,,0.00,VWS V13.01,2013-04-28 09:50:00,
2013-04-28 04:55:00,52.1,50.5,29.95,SW,233,3.6,3.6,94,0.00,,,0.00,VWS V13.01,2013-04-28 09:55:00,
2013-04-28 05:00:00,52.1,50.5,29.95,SSW,211,0.0,0.0,94,0.00,,,0.00,VWS V13.01,2013-04-28 10:00:00,
2013-04-28 05:05:00,52.1,50.5,29.95,SW,218,2.2,2.2,94,0.00,,,0.00,VWS V13.01,2013-04-28 10:05:00,
2013-04-28 05:10:00,52.0,50.3,29.95,SSW,202,2.7,4.0,94,0.00,,,0.00,VWS V13.01,2013-04-28 10:10:00,
2013-04-28 05:15:00,52.1,50.8,29.98,WSW,239,3.1,4.0,95,0.00,,,0.00,VWS V13.01,2013-04-28 10:15:00,
2013-04-28 05:20:00,52.1,51.0,29.98,SW,234,3.6,4.0,96,0.00,,,0.00,VWS V13.01,2013-04-28 10:20:00,
2013-04-28 05:25:00,52.0,50.9,29.98,WSW,255,3.1,3.1,96,0.00,,,0.00,VWS V13.01,2013-04-28 10:25:00,
2013-04-28 05:30:00,52.0,50.9,29.98,WSW,256,4.0,4.5,96,0.00,,,0.00,VWS V13.01,2013-04-28 10:30:00,
2013-04-28 05:35:00,52.0,50.9,29.98,West,264,4.0,4.0,96,0.00,,,0.00,VWS V13.01,2013-04-28 10:35:00,
2013-04-28 05:40:00,52.0,51.1,29.98,WSW,254,4.0,4.0,97,0.00,,,0.00,VWS V13.01,2013-04-28 10:40:00,
2013-04-28 05:45:00,51.8,51.0,29.95,WSW,258,0.0,4.0,97,0.00,,,0.00,VWS V13.01,2013-04-28 10:45:00,
2013-04-28 05:50:00,51.8,51.0,29.95,West,263,3.6,4.5,97,0.00,,,0.00,VWS V13.01,2013-04-28 10:50:00,
2013-04-28 05:55:00,51.8,51.0,29.95,WNW,295,2.2,3.1,97,0.00,,,0.00,VWS V13.01,2013-04-28 10:55:00,
2013-04-28 06:00:00,51.8,50.4,29.95,WSW,250,3.6,6.3,95,0.00,,,0.00,VWS V13.01,2013-04-28 11:00:00,
2013-04-28 06:05:00,51.8,50.4,29.95,West,259,5.4,5.4,95,0.00,,,0.00,VWS V13.01,2013-04-28 11:05:00,
2013-04-28 06:10:00,51.8,49.8,29.95,WSW,257,3.6,5.8,93,0.00,,,0.00,VWS V13.01,2013-04-28 11:10:00,
2013-04-28 06:15:00,52.0,49.4,29.95,WSW,239,5.4,5.4,91,0.00,,,0.00,VWS V13.01,2013-04-28 11:15:00,
2013-04-28 06:20:00,52.1,49.0,29.95,WSW,250,4.9,6.3,89,0.00,,,0.00,VWS V13.01,2013-04-28 11:20:00,
2013-04-28 06:25:00,52.1,49.0,29.95,West,275,3.6,3.6,89,0.00,,,0.00,VWS V13.01,2013-04-28 11:25:00,
2013-04-28 06:30:00,52.1,49.0,29.95,SW,221,3.1,4.0,89,0.00,,,0.00,VWS V13.01,2013-04-28 11:30:00,
2013-04-28 06:35:00,52.0,48.8,29.95,WSW,258,2.7,2.7,89,0.00,,,0.00,VWS V13.01,2013-04-28 11:35:00,
2013-04-28 06:40:00,52.0,48.5,29.95,WSW,255,3.1,4.0,88,0.00,,,0.00,VWS V13.01,2013-04-28 11:40:00,
2013-04-28 06:45:00,52.0,48.2,29.95,SW,235,4.0,4.0,87,0.00,,,0.00,VWS V13.01,2013-04-28 11:45:00,
2013-04-28 06:50:00,52.0,47.9,29.95,SW,222,4.9,5.8,86,0.00,,,0.00,VWS V13.01,2013-04-28 11:50:00,
2013-04-28 06:55:00,52.0,46.7,29.95,SW,236,5.4,8.7,82,0.00,,,0.00,VWS V13.01,2013-04-28 11:55:00,
2013-04-28 07:00:00,52.1,46.2,29.95,WSW,246,4.0,5.8,80,0.00,,,0.00,VWS V13.01,2013-04-28 12:00:00,
2013-04-28 07:05:00,52.1,45.8,29.95,SW,222,4.9,8.7,79,0.00,,,0.00,VWS V13.01,2013-04-28 12:05:00,
2013-04-28 07:10:00,52.1,45.8,29.95,SW,216,4.9,6.3,79,0.00,,,0.00,VWS V13.01,2013-04-28 12:10:00,
2013-04-28 07:15:00,52.1,45.8,29.98,WSW,245,6.3,6.3,79,0.00,,,0.00,VWS V13.01,2013-04-28 12:15:00,
2013-04-28 07:20:00,52.1,45.5,29.98,WSW,238,3.1,3.6,78,0.00,,,0.00,VWS V13.01,2013-04-28 12:20:00,
2013-04-28 07:25:00,52.1,45.8,29.98,SW,231,2.7,4.0,79,0.00,,,0.00,VWS V13.01,2013-04-28 12:25:00,
2013-04-28 07:30:00,52.1,45.8,29.98,SW,231,4.0,5.8,79,0.00,,,0.00,VWS V13.01,2013-04-28 12:30:00,
2013-04-28 07:35:00,52.1,45.5,29.98,SW,232,5.4,5.8,78,0.00,,,0.00,VWS V13.01,2013-04-28 12:35:00,
2013-04-28 07:40:00,52.3,46.0,29.98,WSW,237,5.8,6.3,79,0.00,,,0.00,VWS V13.01,2013-04-28 12:40:00,
2013-04-28 07:45:00,52.5,46.2,29.98,SW,234,5.4,5.8,79,0.00,,,0.00,VWS V13.01,2013-04-28 12:45:00,
2013-04-28 07:50:00,52.5,46.2,29.98,WSW,251,5.8,5.8,79,0.00,,,0.00,VWS V13.01,2013-04-28 12:50:00,
2013-04-28 07:54:00,52.5,46.2,29.98,WSW,239,3.6,4.9,79,0.00,,,0.00,VWS V13.01,2013-04-28 12:54:00,
2013-04-28 07:59:00,52.5,46.2,29.98,West,279,4.9,4.9,79,0.00,,,0.00,VWS V13.01,2013-04-28 12:59:00,
2013-04-28 08:04:00,52.7,46.4,29.98,WSW,251,3.1,3.1,79,0.00,,,0.00,VWS V13.01,2013-04-28 13:04:00,
2013-04-28 08:09:00,52.9,46.9,29.98,SW,224,3.6,4.0,80,0.00,,,0.00,VWS V13.01,2013-04-28 13:09:00,
2013-04-28 08:14:00,52.9,46.2,29.98,SW,235,3.6,5.8,78,0.00,,,0.00,VWS V13.01,2013-04-28 13:14:00,
2013-04-28 08:19:00,52.9,46.2,29.98,SW,227,5.8,5.8,78,0.00,,,0.00,VWS V13.01,2013-04-28 13:19:00,
2013-04-28 08:24:00,52.9,45.5,29.98,West,261,0.0,0.0,76,0.00,,,0.00,VWS V13.01,2013-04-28 13:24:00,
2013-04-28 08:29:00,52.9,45.2,29.98,WSW,255,2.7,4.0,75,0.00,,,0.00,VWS V13.01,2013-04-28 13:29:00,
2013-04-28 08:34:00,53.0,46.4,29.98,SW,232,2.7,3.6,78,0.00,,,0.00,VWS V13.01,2013-04-28 13:34:00,
2013-04-28 08:39:00,53.0,45.3,29.98,WSW,251,2.2,2.7,75,0.00,,,0.00,VWS V13.01,2013-04-28 13:39:00,
2013-04-28 08:44:00,53.2,46.2,29.98,SW,225,5.8,5.8,77,0.00,,,0.00,VWS V13.01,2013-04-28 13:44:00,
2013-04-28 08:49:00,53.2,45.9,29.98,SW,230,3.1,4.0,76,0.00,,,0.00,VWS V13.01,2013-04-28 13:49:00,
2013-04-28 08:54:00,53.4,46.0,29.98,West,267,3.6,5.4,76,0.00,,,0.00,VWS V13.01,2013-04-28 13:54:00,
2013-04-28 08:59:00,53.4,45.0,29.98,WSW,254,3.1,4.0,73,0.00,,,0.00,VWS V13.01,2013-04-28 13:59:00,
2013-04-28 09:04:00,53.4,45.3,29.98,SSW,207,2.7,2.7,74,0.00,,,0.00,VWS V13.01,2013-04-28 14:04:00,
2013-04-28 09:09:00,53.6,45.2,29.98,West,267,4.0,6.3,73,0.00,,,0.00,VWS V13.01,2013-04-28 14:09:00,
2013-04-28 09:14:00,53.6,45.5,29.98,WSW,257,5.8,6.3,74,0.00,,,0.00,VWS V13.01,2013-04-28 14:14:00,
2013-04-28 09:19:00,53.6,44.8,29.98,SW,229,5.4,6.3,72,0.00,,,0.00,VWS V13.01,2013-04-28 14:19:00,
2013-04-28 09:24:00,53.8,45.0,29.98,WSW,237,5.4,5.8,72,0.00,,,0.00,VWS V13.01,2013-04-28 14:24:00,
2013-04-28 09:29:00,53.8,44.6,29.98,West,262,4.9,5.8,71,0.00,,,0.00,VWS V13.01,2013-04-28 14:29:00,
2013-04-28 09:34:00,54.1,44.9,29.98,West,260,2.7,3.1,71,0.00,,,0.00,VWS V13.01,2013-04-28 14:34:00,
2013-04-28 09:39:00,54.5,44.9,29.98,WSW,248,5.4,5.8,70,0.00,,,0.00,VWS V13.01,2013-04-28 14:39:00,
2013-04-28 09:44:00,55.0,45.8,29.98,South,191,2.7,3.6,71,0.00,,,0.00,VWS V13.01,2013-04-28 14:44:00,
2013-04-28 09:49:00,55.6,45.6,29.98,WSW,238,4.5,4.5,69,0.00,,,0.00,VWS V13.01,2013-04-28 14:49:00,
2013-04-28 09:54:00,55.9,45.9,29.98,WSW,238,5.4,5.8,69,0.00,,,0.00,VWS V13.01,2013-04-28 14:54:00,
2013-04-28 09:59:00,55.6,44.8,29.98,West,264,3.6,5.8,67,0.00,,,0.00,VWS V13.01,2013-04-28 14:59:00,
2013-04-28 10:04:00,55.6,45.6,29.98,SSW,207,3.1,3.1,69,0.00,,,0.00,VWS V13.01,2013-04-28 15:04:00,
2013-04-28 10:09:00,55.7,45.3,29.98,SSE,160,3.1,3.6,68,0.00,,,0.00,VWS V13.01,2013-04-28 15:09:00,
2013-04-28 10:14:00,56.6,46.6,29.98,South,190,4.0,4.5,69,0.00,,,0.00,VWS V13.01,2013-04-28 15:14:00,
2013-04-28 10:19:00,57.2,45.5,29.98,SSE,164,5.4,5.8,65,0.00,,,0.00,VWS V13.01,2013-04-28 15:19:00,
2013-04-28 10:24:00,57.0,45.8,29.98,West,266,4.0,4.9,66,0.00,,,0.00,VWS V13.01,2013-04-28 15:24:00,
2013-04-28 10:29:00,56.8,46.0,29.98,SSE,150,7.2,7.2,67,0.00,,,0.00,VWS V13.01,2013-04-28 15:29:00,
2013-04-28 10:34:00,56.8,46.0,29.98,SW,230,3.6,3.6,67,0.00,,,0.00,VWS V13.01,2013-04-28 15:34:00,
2013-04-28 10:39:00,57.4,46.1,29.98,South,170,3.1,4.0,66,0.00,,,0.00,VWS V13.01,2013-04-28 15:39:00,
2013-04-28 10:44:00,57.9,46.6,29.98,SSW,213,3.1,3.1,66,0.00,,,0.00,VWS V13.01,2013-04-28 15:44:00,
2013-04-28 10:49:00,58.4,46.7,29.98,South,172,6.7,6.7,65,0.00,,,0.00,VWS V13.01,2013-04-28 15:49:00,
2013-04-28 10:54:00,58.4,46.7,29.98,SW,236,3.1,4.9,65,0.00,,,0.00,VWS V13.01,2013-04-28 15:54:00,
2013-04-28 10:59:00,58.3,47.4,29.98,SSE,159,5.8,8.1,67,0.00,,,0.00,VWS V13.01,2013-04-28 15:59:00,
2013-04-28 11:04:00,58.6,47.3,29.98,SSE,159,3.6,3.6,66,0.00,,,0.00,VWS V13.01,2013-04-28 16:04:00,
2013-04-28 11:09:00,58.8,47.5,29.98,South,185,8.1,8.1,66,0.00,,,0.00,VWS V13.01,2013-04-28 16:09:00,
2013-04-28 11:14:00,58.6,47.3,29.98,SSE,166,5.4,7.6,66,0.00,,,0.00,VWS V13.01,2013-04-28 16:14:00,
2013-04-28 11:19:00,59.0,47.7,29.98,South,180,3.6,5.8,66,0.00,,,0.00,VWS V13.01,2013-04-28 16:19:00,
2013-04-28 11:24:00,59.2,48.6,29.98,South,173,5.8,5.8,68,0.00,,,0.00,VWS V13.01,2013-04-28 16:24:00,
2013-04-28 11:29:00,59.5,47.8,29.98,SSW,195,2.7,5.4,65,0.00,,,0.00,VWS V13.01,2013-04-28 16:29:00,
2013-04-28 11:34:00,59.7,48.3,29.98,South,183,3.6,6.3,66,0.00,,,0.00,VWS V13.01,2013-04-28 16:34:00,
2013-04-28 11:39:00,60.1,47.4,29.98,South,182,7.6,7.6,63,0.00,,,0.00,VWS V13.01,2013-04-28 16:39:00,
2013-04-28 11:44:00,59.7,47.5,29.98,South,177,6.3,7.6,64,0.00,,,0.00,VWS V13.01,2013-04-28 16:44:00,
2013-04-28 11:49:00,59.7,48.7,29.98,SSE,166,4.9,4.9,67,0.00,,,0.00,VWS V13.01,2013-04-28 16:49:00,
2013-04-28 11:54:00,59.5,47.8,29.98,SSW,198,8.3,8.3,65,0.00,,,0.00,VWS V13.01,2013-04-28 16:54:00,
2013-04-28 11:59:00,59.7,48.3,29.98,South,169,6.7,8.7,66,0.00,,,0.00,VWS V13.01,2013-04-28 16:59:00,
2013-04-28 12:04:00,60.2,49.2,29.98,SSE,166,5.4,5.8,67,0.00,,,0.00,VWS V13.01,2013-04-28 17:04:00,
2013-04-28 12:09:00,60.6,48.8,29.98,SSE,150,4.0,5.8,65,0.00,,,0.00,VWS V13.01,2013-04-28 17:09:00,
2013-04-28 12:14:00,61.0,48.7,29.95,East,93,3.6,4.0,64,0.00,,,0.00,VWS V13.01,2013-04-28 17:14:00,
2013-04-28 12:19:00,61.5,49.2,29.95,SW,221,4.9,5.4,64,0.00,,,0.00,VWS V13.01,2013-04-28 17:19:00,
2013-04-28 12:24:00,61.7,49.4,29.95,South,178,2.7,3.6,64,0.00,,,0.00,VWS V13.01,2013-04-28 17:24:00,
2013-04-28 12:29:00,61.5,49.2,29.95,SSW,197,7.6,8.3,64,0.00,,,0.00,VWS V13.01,2013-04-28 17:29:00,
2013-04-28 12:34:00,61.3,49.0,29.95,SSE,147,6.3,6.3,64,0.00,,,0.00,VWS V13.01,2013-04-28 17:34:00,
2013-04-28 12:39:00,61.9,50.0,29.95,SSE,155,5.4,5.4,65,0.00,,,0.00,VWS V13.01,2013-04-28 17:39:00,
2013-04-28 12:44:00,62.2,50.3,29.95,WSW,248,5.8,5.8,65,0.00,,,0.00,VWS V13.01,2013-04-28 17:44:00,
2013-04-28 12:49:00,62.8,51.7,29.95,WSW,249,8.1,8.1,67,0.00,,,0.00,VWS V13.01,2013-04-28 17:49:00,
2013-04-28 12:54:00,62.6,50.7,29.95,SW,230,4.5,4.9,65,0.00,,,0.00,VWS V13.01,2013-04-28 17:54:00,
2013-04-28 12:59:00,62.8,50.0,29.95,SW,220,3.1,3.6,63,0.00,,,0.00,VWS V13.01,2013-04-28 17:59:00,
2013-04-28 13:04:00,63.3,50.5,29.95,SSW,198,3.1,4.9,63,0.00,,,0.00,VWS V13.01,2013-04-28 18:04:00,
2013-04-28 13:09:00,63.5,50.7,29.95,SE,124,5.4,5.4,63,0.00,,,0.00,VWS V13.01,2013-04-28 18:09:00,
2013-04-28 13:14:00,63.5,49.4,29.95,South,179,5.4,5.4,60,0.00,,,0.00,VWS V13.01,2013-04-28 18:14:00,
2013-04-28 13:19:00,63.7,50.8,29.95,SSE,147,3.6,5.4,63,0.00,,,0.00,VWS V13.01,2013-04-28 18:19:00,
2013-04-28 13:24:00,64.2,52.2,29.95,South,185,5.4,5.4,65,0.00,,,0.00,VWS V13.01,2013-04-28 18:24:00,
2013-04-28 13:29:00,64.4,50.7,29.95,SW,218,4.0,4.0,61,0.00,,,0.00,VWS V13.01,2013-04-28 18:29:00,
2013-04-28 13:34:00,64.4,50.7,29.95,SSE,164,3.1,3.6,61,0.00,,,0.00,VWS V13.01,2013-04-28 18:34:00,
2013-04-28 13:39:00,64.7,50.5,29.95,South,188,6.3,6.3,60,0.00,,,0.00,VWS V13.01,2013-04-28 18:39:00,
2013-04-28 13:44:00,64.6,49.9,29.92,SSE,165,5.4,5.4,59,0.00,,,0.00,VWS V13.01,2013-04-28 18:44:00,
2013-04-28 13:49:00,64.9,51.6,29.92,WSW,244,5.4,5.4,62,0.00,,,0.00,VWS V13.01,2013-04-28 18:49:00,
2013-04-28 13:54:00,64.9,50.3,29.92,SW,233,3.1,7.6,59,0.00,,,0.00,VWS V13.01,2013-04-28 18:54:00,
2013-04-28 13:59:00,65.1,51.3,29.92,SSW,204,5.4,5.8,61,0.00,,,0.00,VWS V13.01,2013-04-28 18:59:00,
2013-04-28 14:04:00,65.3,50.6,29.92,SSW,196,3.6,5.4,59,0.00,,,0.00,VWS V13.01,2013-04-28 19:04:00,
2013-04-28 14:09:00,65.6,51.4,29.92,South,180,6.3,6.3,60,0.00,,,0.00,VWS V13.01,2013-04-28 19:09:00,
2013-04-28 14:14:00,66.0,50.3,29.92,SSW,198,4.9,4.9,57,0.00,,,0.00,VWS V13.01,2013-04-28 19:14:00,
2013-04-28 14:19:00,66.4,51.2,29.92,West,268,8.7,9.2,58,0.00,,,0.00,VWS V13.01,2013-04-28 19:19:00,
2013-04-28 14:24:00,66.4,51.2,29.92,SSW,196,3.6,3.6,58,0.00,,,0.00,VWS V13.01,2013-04-28 19:24:00,
2013-04-28 14:29:00,66.7,51.5,29.92,SW,230,5.4,5.4,58,0.00,,,0.00,VWS V13.01,2013-04-28 19:29:00,
2013-04-28 14:34:00,66.7,50.5,29.92,SW,223,2.7,4.0,56,0.00,,,0.00,VWS V13.01,2013-04-28 19:34:00,
2013-04-28 14:39:00,67.3,51.0,29.92,South,170,4.9,7.6,56,0.00,,,0.00,VWS V13.01,2013-04-28 19:39:00,
2013-04-28 14:44:00,67.6,51.4,29.92,SSW,201,5.4,8.1,56,0.00,,,0.00,VWS V13.01,2013-04-28 19:44:00,
2013-04-28 14:49:00,67.8,51.1,29.92,SE,132,4.0,4.9,55,0.00,,,0.00,VWS V13.01,2013-04-28 19:49:00,
2013-04-28 14:54:00,68.0,50.7,29.92,SE,135,4.9,4.9,54,0.00,,,0.00,VWS V13.01,2013-04-28 19:54:00,
2013-04-28 14:59:00,68.2,50.9,29.92,SW,222,3.6,4.0,54,0.00,,,0.00,VWS V13.01,2013-04-28 19:59:00,
2013-04-28 15:04:00,68.7,51.9,29.92,SSE,163,3.1,4.0,55,0.00,,,0.00,VWS V13.01,2013-04-28 20:04:00,
2013-04-28 15:09:00,69.1,51.7,29.92,SW,218,3.6,4.0,54,0.00,,,0.00,VWS V13.01,2013-04-28 20:09:00,
2013-04-28 15:14:00,69.4,52.1,29.89,SW,233,6.3,6.3,54,0.00,,,0.00,VWS V13.01,2013-04-28 20:14:00,
2013-04-28 15:19:00,69.2,51.4,29.89,SSW,194,5.8,6.3,53,0.00,,,0.00,VWS V13.01,2013-04-28 20:19:00,
2013-04-28 15:24:00,68.9,51.1,29.89,SE,131,3.1,3.6,53,0.00,,,0.00,VWS V13.01,2013-04-28 20:24:00,
2013-04-28 15:28:00,69.4,51.6,29.89,SE,126,0.0,0.0,53,0.00,,,0.00,VWS V13.01,2013-04-28 20:28:00,
2013-04-28 15:33:00,70.1,52.2,29.89,NW,316,2.7,3.1,53,0.00,,,0.00,VWS V13.01,2013-04-28 20:33:00,
2013-04-28 15:38:00,70.9,52.9,29.89,SSE,150,3.1,3.1,53,0.00,,,0.00,VWS V13.01,2013-04-28 20:38:00,
2013-04-28 15:43:00,71.2,52.7,29.89,SW,233,4.0,5.4,52,0.00,,,0.00,VWS V13.01,2013-04-28 20:43:00,
2013-04-28 15:48:00,70.5,52.6,29.89,South,187,5.4,5.4,53,0.00,,,0.00,VWS V13.01,2013-04-28 20:48:00,
2013-04-28 15:53:00,70.1,51.7,29.89,South,191,2.7,3.6,52,0.00,,,0.00,VWS V13.01,2013-04-28 20:53:00,
2013-04-28 15:58:00,70.9,52.4,29.89,NE,38,3.6,4.9,52,0.00,,,0.00,VWS V13.01,2013-04-28 20:58:00,
2013-04-28 16:03:00,71.2,52.7,29.89,West,276,2.7,2.7,52,0.00,,,0.00,VWS V13.01,2013-04-28 21:03:00,
2013-04-28 16:08:00,71.4,52.9,29.89,South,179,5.4,5.4,52,0.00,,,0.00,VWS V13.01,2013-04-28 21:08:00,
2013-04-28 16:13:00,70.9,52.4,29.89,West,264,4.0,4.0,52,0.00,,,0.00,VWS V13.01,2013-04-28 21:13:00,
2013-04-28 16:18:00,70.7,52.2,29.89,WSW,251,3.1,3.1,52,0.00,,,0.00,VWS V13.01,2013-04-28 21:18:00,
2013-04-28 16:23:00,71.0,52.5,29.89,SSE,147,3.1,5.4,52,0.00,,,0.00,VWS V13.01,2013-04-28 21:23:00,
2013-04-28 16:28:00,71.0,53.1,29.89,WSW,241,3.1,4.0,53,0.00,,,0.00,VWS V13.01,2013-04-28 21:28:00,
2013-04-28 16:33:00,71.2,53.2,29.86,SW,230,5.4,5.4,53,0.00,,,0.00,VWS V13.01,2013-04-28 21:33:00,
2013-04-28 16:38:00,71.2,52.7,29.86,East,87,2.2,4.0,52,0.00,,,0.00,VWS V13.01,2013-04-28 21:38:00,
2013-04-28 16:43:00,71.4,52.3,29.89,South,170,3.1,3.6,51,0.00,,,0.00,VWS V13.01,2013-04-28 21:43:00,
2013-04-28 16:48:00,71.4,52.3,29.89,South,171,0.0,0.0,51,0.00,,,0.00,VWS V13.01,2013-04-28 21:48:00,
2013-04-28 16:53:00,72.1,53.0,29.89,South,180,0.0,0.0,51,0.00,,,0.00,VWS V13.01,2013-04-28 21:53:00,
2013-04-28 16:58:00,72.8,53.7,29.89,SW,231,3.1,3.1,51,0.00,,,0.00,VWS V13.01,2013-04-28 21:58:00,
2013-04-28 17:03:00,72.7,52.4,29.89,WSW,239,2.2,2.7,49,0.00,,,0.00,VWS V13.01,2013-04-28 22:03:00,
2013-04-28 17:08:00,72.5,52.3,29.89,West,262,2.7,3.6,49,0.00,,,0.00,VWS V13.01,2013-04-28 22:08:00,
2013-04-28 17:13:00,72.8,53.1,29.89,West,265,0.0,2.2,50,0.00,,,0.00,VWS V13.01,2013-04-28 22:13:00,
2013-04-28 17:18:00,73.2,52.4,29.86,South,172,2.7,3.6,48,0.00,,,0.00,VWS V13.01,2013-04-28 22:18:00,
2013-04-28 17:23:00,72.5,52.3,29.86,SSE,165,0.0,2.2,49,0.00,,,0.00,VWS V13.01,2013-04-28 22:23:00,
2013-04-28 17:28:00,72.5,53.3,29.89,ESE,122,3.1,3.6,51,0.00,,,0.00,VWS V13.01,2013-04-28 22:28:00,
2013-04-28 17:33:00,72.5,53.3,29.89,ESE,122,2.7,3.6,51,0.00,,,0.00,VWS V13.01,2013-04-28 22:33:00,
2013-04-28 17:38:00,72.3,52.1,29.89,North,358,0.0,0.0,49,0.00,,,0.00,VWS V13.01,2013-04-28 22:38:00,
2013-04-28 17:43:00,73.0,52.8,29.89,SE,129,3.1,3.1,49,0.00,,,0.00,VWS V13.01,2013-04-28 22:43:00,
2013-04-28 17:48:00,72.8,51.5,29.86,South,178,2.2,2.7,47,0.00,,,0.00,VWS V13.01,2013-04-28 22:48:00,
2013-04-28 17:53:00,72.7,51.9,29.86,SSW,213,2.2,3.1,48,0.00,,,0.00,VWS V13.01,2013-04-28 22:53:00,
2013-04-28 17:58:00,72.7,51.9,29.86,SE,124,2.7,3.6,48,0.00,,,0.00,VWS V13.01,2013-04-28 22:58:00,
2013-04-28 18:03:00,72.3,50.4,29.86,East,89,5.8,5.8,46,0.00,,,0.00,VWS V13.01,2013-04-28 23:03:00,
2013-04-28 18:08:00,71.9,51.2,29.86,ESE,121,3.1,3.6,48,0.00,,,0.00,VWS V13.01,2013-04-28 23:08:00,
2013-04-28 18:13:00,71.9,51.2,29.86,South,172,4.9,4.9,48,0.00,,,0.00,VWS V13.01,2013-04-28 23:13:00,
2013-04-28 18:18:00,71.8,51.0,29.86,East,81,3.1,3.1,48,0.00,,,0.00,VWS V13.01,2013-04-28 23:18:00,
2013-04-28 18:23:00,71.8,51.6,29.86,SE,143,2.7,3.6,49,0.00,,,0.00,VWS V13.01,2013-04-28 23:23:00,
2013-04-28 18:28:00,71.8,50.5,29.86,ENE,72,3.6,3.6,47,0.00,,,0.00,VWS V13.01,2013-04-28 23:28:00,
2013-04-28 18:33:00,71.6,50.9,29.86,ESE,120,2.7,3.6,48,0.00,,,0.00,VWS V13.01,2013-04-28 23:33:00,
2013-04-28 18:38:00,71.4,50.1,29.86,East,90,0.0,0.0,47,0.00,,,0.00,VWS V13.01,2013-04-28 23:38:00,
2013-04-28 18:43:00,71.6,51.4,29.86,East,90,0.0,0.0,49,0.00,,,0.00,VWS V13.01,2013-04-28 23:43:00,
2013-04-28 18:48:00,71.6,52.0,29.86,ESE,122,0.0,0.0,50,0.00,,,0.00,VWS V13.01,2013-04-28 23:48:00,
2013-04-28 18:53:00,71.2,51.1,29.86,ENE,70,2.7,3.1,49,0.00,,,0.00,VWS V13.01,2013-04-28 23:53:00,
2013-04-28 18:58:00,71.0,51.5,29.86,ENE,77,3.1,3.1,50,0.00,,,0.00,VWS V13.01,2013-04-28 23:58:00,
2013-04-28 19:03:00,70.9,51.8,29.86,ESE,103,3.6,3.6,51,0.00,,,0.00,VWS V13.01,2013-04-29 00:03:00,
2013-04-28 19:08:00,70.7,52.2,29.86,East,91,2.7,2.7,52,0.00,,,0.00,VWS V13.01,2013-04-29 00:08:00,
2013-04-28 19:13:00,70.3,51.9,29.86,ENE,68,0.0,0.0,52,0.00,,,0.00,VWS V13.01,2013-04-29 00:13:00,
2013-04-28 19:18:00,70.1,51.7,29.86,East,96,0.0,0.0,52,0.00,,,0.00,VWS V13.01,2013-04-29 00:18:00,
2013-04-28 19:23:00,70.0,51.5,29.86,East,96,0.0,0.0,52,0.00,,,0.00,VWS V13.01,2013-04-29 00:23:00,
2013-04-28 19:28:00,69.8,51.4,29.86,East,96,0.0,0.0,52,0.00,,,0.00,VWS V13.01,2013-04-29 00:28:00,
2013-04-28 19:33:00,69.4,51.0,29.86,SE,139,0.0,0.0,52,0.00,,,0.00,VWS V13.01,2013-04-29 00:33:00,
2013-04-28 19:38:00,69.1,50.7,29.86,SE,130,3.1,3.6,52,0.00,,,0.00,VWS V13.01,2013-04-29 00:38:00,
2013-04-28 19:43:00,68.7,50.9,29.86,ESE,110,2.2,2.7,53,0.00,,,0.00,VWS V13.01,2013-04-29 00:43:00,
2013-04-28 19:48:00,68.3,50.6,29.86,East,100,0.0,0.0,53,0.00,,,0.00,VWS V13.01,2013-04-29 00:48:00,
2013-04-28 19:53:00,68.2,50.4,29.86,East,88,0.0,2.2,53,0.00,,,0.00,VWS V13.01,2013-04-29 00:53:00,
2013-04-28 19:58:00,67.6,50.4,29.86,East,92,0.0,0.0,54,0.00,,,0.00,VWS V13.01,2013-04-29 00:58:00,
2013-04-28 20:03:00,67.3,50.6,29.89,SSE,150,2.2,2.2,55,0.00,,,0.00,VWS V13.01,2013-04-29 01:03:00,
2013-04-28 20:08:00,66.7,50.5,29.89,ENE,78,0.0,0.0,56,0.00,,,0.00,VWS V13.01,2013-04-29 01:08:00,
2013-04-28 20:13:00,66.4,50.7,29.89,ENE,75,0.0,2.2,57,0.00,,,0.00,VWS V13.01,2013-04-29 01:13:00,
2013-04-28 20:18:00,66.0,50.3,29.89,ENE,75,0.0,0.0,57,0.00,,,0.00,VWS V13.01,2013-04-29 01:18:00,
2013-04-28 20:23:00,65.6,50.9,29.89,ENE,75,0.0,0.0,59,0.00,,,0.00,VWS V13.01,2013-04-29 01:23:00,
2013-04-28 20:28:00,65.3,51.1,29.89,NE,46,2.7,3.6,60,0.00,,,0.00,VWS V13.01,2013-04-29 01:28:00,
2013-04-28 20:33:00,64.7,51.9,29.89,NE,35,3.1,3.1,63,0.00,,,0.00,VWS V13.01,2013-04-29 01:33:00,
2013-04-28 20:38:00,64.2,52.2,29.89,NE,35,0.0,0.0,65,0.00,,,0.00,VWS V13.01,2013-04-29 01:38:00,
2013-04-28 20:43:00,63.5,52.3,29.89,NE,35,0.0,0.0,67,0.00,,,0.00,VWS V13.01,2013-04-29 01:43:00,
2013-04-28 20:48:00,62.8,52.5,29.89,NE,35,0.0,0.0,69,0.00,,,0.00,VWS V13.01,2013-04-29 01:48:00,
2013-04-28 20:53:00,62.0,52.5,29.89,NE,35,0.0,0.0,71,0.00,,,0.00,VWS V13.01,2013-04-29 01:53:00,
2013-04-28 20:58:00,61.5,52.4,29.89,NE,35,0.0,0.0,72,0.00,,,0.00,VWS V13.01,2013-04-29 01:58:00,
2013-04-28 21:03:00,61.1,53.2,29.89,NE,35,0.0,0.0,75,0.00,,,0.00,VWS V13.01,2013-04-29 02:03:00,
2013-04-28 21:08:00,60.8,52.5,29.89,NE,35,0.0,0.0,74,0.00,,,0.00,VWS V13.01,2013-04-29 02:08:00,
2013-04-28 21:13:00,60.4,52.5,29.89,North,11,0.0,0.0,75,0.00,,,0.00,VWS V13.01,2013-04-29 02:13:00,
2013-04-28 21:18:00,60.1,52.1,29.89,North,11,0.0,0.0,75,0.00,,,0.00,VWS V13.01,2013-04-29 02:18:00,
2013-04-28 21:23:00,59.9,52.3,29.89,North,11,0.0,0.0,76,0.00,,,0.00,VWS V13.01,2013-04-29 02:23:00,
2013-04-28 21:28:00,59.7,51.8,29.89,North,11,0.0,0.0,75,0.00,,,0.00,VWS V13.01,2013-04-29 02:28:00,
2013-04-28 21:33:00,59.7,52.1,29.89,North,11,0.0,0.0,76,0.00,,,0.00,VWS V13.01,2013-04-29 02:33:00,
2013-04-28 21:38:00,59.7,51.8,29.89,North,11,0.0,0.0,75,0.00,,,0.00,VWS V13.01,2013-04-29 02:38:00,
2013-04-28 21:43:00,59.3,51.4,29.89,North,11,0.0,0.0,75,0.00,,,0.00,VWS V13.01,2013-04-29 02:43:00,
2013-04-28 21:48:00,59.0,51.1,29.89,North,11,0.0,0.0,75,0.00,,,0.00,VWS V13.01,2013-04-29 02:48:00,
2013-04-28 21:52:00,58.8,51.6,29.89,North,11,0.0,0.0,77,0.00,,,0.00,VWS V13.01,2013-04-29 02:52:00,
2013-04-28 21:57:00,58.6,52.1,29.89,North,11,0.0,0.0,79,0.00,,,0.00,VWS V13.01,2013-04-29 02:57:00,
2013-04-28 22:02:00,58.4,52.0,29.92,North,11,0.0,0.0,79,0.00,,,0.00,VWS V13.01,2013-04-29 03:02:00,
2013-04-28 22:07:00,58.1,52.0,29.92,North,11,0.0,0.0,80,0.00,,,0.00,VWS V13.01,2013-04-29 03:07:00,
2013-04-28 22:12:00,57.9,52.1,29.92,North,11,0.0,0.0,81,0.00,,,0.00,VWS V13.01,2013-04-29 03:12:00,
2013-04-28 22:17:00,57.7,51.9,29.92,North,11,0.0,0.0,81,0.00,,,0.00,VWS V13.01,2013-04-29 03:17:00,
2013-04-28 22:22:00,57.4,51.6,29.92,North,11,0.0,0.0,81,0.00,,,0.00,VWS V13.01,2013-04-29 03:22:00,
2013-04-28 22:27:00,57.2,52.1,29.92,North,11,0.0,0.0,83,0.00,,,0.00,VWS V13.01,2013-04-29 03:27:00,
2013-04-28 22:32:00,56.8,51.4,29.92,North,11,0.0,0.0,82,0.00,,,0.00,VWS V13.01,2013-04-29 03:32:00,
2013-04-28 22:37:00,56.5,51.4,29.92,North,11,0.0,0.0,83,0.00,,,0.00,VWS V13.01,2013-04-29 03:37:00,
2013-04-28 22:42:00,56.1,51.7,29.92,North,11,0.0,0.0,85,0.00,,,0.00,VWS V13.01,2013-04-29 03:42:00,
2013-04-28 22:47:00,55.6,52.1,29.92,NNE,27,3.1,3.1,88,0.00,,,0.00,VWS V13.01,2013-04-29 03:47:00,
2013-04-28 22:52:00,55.2,52.0,29.92,NNE,27,0.0,0.0,89,0.00,,,0.00,VWS V13.01,2013-04-29 03:52:00,
2013-04-28 22:57:00,54.8,52.3,29.92,NNE,27,0.0,0.0,91,0.00,,,0.00,VWS V13.01,2013-04-29 03:57:00,
2013-04-28 23:01:00,54.8,52.3,29.89,NNE,27,0.0,0.0,91,0.00,,,0.00,VWS V13.01,2013-04-29 04:01:00,
2013-04-28 23:06:00,54.5,51.9,29.89,NNE,27,0.0,0.0,91,0.00,,,0.00,VWS V13.01,2013-04-29 04:06:00,
2013-04-28 23:11:00,54.3,51.7,29.89,NNE,27,0.0,0.0,91,0.00,,,0.00,VWS V13.01,2013-04-29 04:11:00,
2013-04-28 23:16:00,54.3,52.0,29.89,NNE,27,0.0,0.0,92,0.00,,,0.00,VWS V13.01,2013-04-29 04:16:00,
2013-04-28 23:21:00,54.1,51.8,29.89,NNE,27,2.2,2.2,92,0.00,,,0.00,VWS V13.01,2013-04-29 04:21:00,
2013-04-28 23:26:00,53.9,51.7,29.89,NNE,27,0.0,0.0,92,0.00,,,0.00,VWS V13.01,2013-04-29 04:26:00,
2013-04-28 23:31:00,53.9,52.0,29.89,NNE,27,0.0,0.0,93,0.00,,,0.00,VWS V13.01,2013-04-29 04:31:00,
2013-04-28 23:36:00,53.9,52.0,29.89,NE,46,0.0,0.0,93,0.00,,,0.00,VWS V13.01,2013-04-29 04:36:00,
2013-04-28 23:41:00,53.9,52.3,29.89,NE,46,0.0,0.0,94,0.00,,,0.00,VWS V13.01,2013-04-29 04:41:00,
2013-04-28 23:46:00,54.3,52.6,29.89,NE,46,0.0,0.0,94,0.00,,,0.00,VWS V13.01,2013-04-29 04:46:00,
2013-04-28 23:51:00,54.3,52.6,29.89,NE,46,0.0,0.0,94,0.00,,,0.00,VWS V13.01,2013-04-29 04:51:00,
2013-04-28 23:56:00,54.3,52.6,29.89,NE,46,0.0,0.0,94,0.00,,,0.00,VWS V13.01,2013-04-29 04:56:00,